Weather in Kruševac

Serbia     43°35′08″N   21°19′42″E
temp.,
°C
wind,
m/s
gust,
m/s
humid.,
%
clouds,
%
prec.,
mm/h
press.,
hPa
HPBL,
m
28 september, tue
tue2823:00+18wsw005327 0.0 101611
02:00+17wnw116440 0.1 101711
05:00+14wnw118598 0.1 101811
08:00+16nnw1284100 0.3 1019216
11:00+18ne228491 0.6 1019562
14:00+18ne228183 1.5 1019387
17:00+20nnw236830 0.1 1019825
20:00+15nw119014 0.1 102011
29 september, wed
wed2923:00+14ssw119260 0.0 102011
02:00+15ssw118869 0.0 102011
05:00+14ne129074 0.0 1020113
08:00+14nne227988 0.0 1021233
11:00+18ne336177 0.0 1021833
14:00+21ene3349100 0.0 10191433
17:00+17ene5659100 0.0 1020475
20:00+13ne2372100 0.0 102282
30 september, thu
thu3023:00+12ene1274100 0.0 102349
02:00+13ene1268100 0.0 102393
05:00+12ne1166100 0.0 102371
08:00+11n1274100 0.3 1025101
11:00+10wnw0190100 1.6 102685
14:00+11wsw1288100 2.4 1025121
17:00+14w127550 0.0 1025194
20:00+11w1181100 0.0 102610
1 october, fri
fri123:00+11w1180100 0.0 102712
02:00+9w118291 0.0 102710
05:00+8wsw1184100 0.0 102710
08:00+10n1174100 0.0 102885
11:00+15nne2254100 0.0 1028655
14:00+18ene2341100 0.0 10251516
17:00+17ene4437100 0.0 1025829
20:00+11sw1151100 0.0 102610
2 october, sat
sat223:00+9s1157100 0.0 102611
02:00+8sse1160100 0.0 102512
05:00+7sse1161100 0.0 102414
08:00+10se125568 0.0 1024118
11:00+17ese34365 0.0 10231046
14:00+20ese34290 0.0 10201533
17:00+20e23290 0.0 1019249
20:00+12sse11480 0.0 102011